Crosby, ND

7:24 AM CST on December 14, 2019 (GMT -0600)
Crosby

Weather History for KD50 - November, 2019

Change the Weather History Date:

Tuesday, November 12, 2019

  Actual Average (KISN) Record (KISN)
Temperature  
Mean Temperature 19 °F -  
Max Temperature 30 °F 36 °F 75 °F (1999)
Min Temperature 8 °F 17 °F -12 °F (1940)
Degree Days  
Heating Degree Days 46    
Moisture  
Dew Point 14 °F    
Average Humidity 78    
Maximum Humidity 93    
Minimum Humidity 55    
Precipitation  
Precipitation 0.00 in - - ()
Sea Level Pressure  
Sea Level Pressure 29.85 in    
Wind  
Wind Speed 12 mph (WSW)    
Max Wind Speed 21 mph    
Max Gust Speed 26 mph    
Visibility 10 miles    
Events Snow    
Averages and records for this station are not official NWS values.
T = Trace of Precipitation, MM = Missing Value Source: NWS Daily Summary

Daily Weather History Graph

Daily Weather History Graph

Search for Another Location

Airport or City:

Astronomy

Nov. 12, 2019 Rise Set
Actual Time 7:57 AM CST 5:16 PM CST
Civil Twilight 7:23 AM CST 5:50 PM CST
Nautical Twilight 6:45 AM CST 6:28 PM CST
Astronomical Twilight 6:07 AM CST 7:06 PM CST
Moon 5:47 PM CST (11/12) 7:47 AM CST (11/12)
Length of Visible Light 10h 27m
Length of Day
9h 18m
Full, 100% of the Moon is Illuminated
Nov 12
Full
Nov 19
Last Quarter
Nov 26
New
Dec 4
First Quarter
Dec 11
Full

Hourly Weather History & Observations

Time (CST) Temp. Windchill Dew Point Humidity Pressure Visibility Wind Dir Wind Speed Gust Speed Precip Events Conditions
12:35 AM 8.6 °F -7.7 °F 3.2 °F 79% 30.16 in 10.0 mi SSW 13.8 mph - N/A   Clear
12:55 AM 8.6 °F -7.7 °F 5.0 °F 85% 30.16 in 10.0 mi SSW 13.8 mph - N/A   Clear
1:15 AM 8.6 °F -8.3 °F 3.2 °F 79% 30.15 in 10.0 mi SSW 15.0 mph 20.7 mph N/A   Clear
1:35 AM 8.6 °F -6.3 °F 3.2 °F 79% 30.13 in 10.0 mi South 11.5 mph - N/A   Clear
1:55 AM 8.6 °F -7.0 °F 5.0 °F 85% 30.10 in 10.0 mi South 12.7 mph - N/A   Clear
2:15 AM 10.4 °F -6.0 °F 5.0 °F 79% 30.08 in 10.0 mi South 15.0 mph - N/A   Clear
2:35 AM 10.4 °F -4.1 °F 3.2 °F 73% 30.06 in 10.0 mi South 11.5 mph - N/A   Clear
2:55 AM 10.4 °F -4.1 °F 5.0 °F 79% 30.03 in 10.0 mi South 11.5 mph - N/A   Clear
3:15 AM 10.4 °F -4.1 °F 5.0 °F 79% 30.02 in 10.0 mi South 11.5 mph - N/A   Clear
3:35 AM 10.4 °F -5.4 °F 5.0 °F 79% 30.00 in 10.0 mi South 13.8 mph - N/A   Clear
3:55 AM 10.4 °F -6.6 °F 5.0 °F 79% 29.98 in 10.0 mi South 16.1 mph - N/A   Clear
4:15 AM 10.4 °F -7.7 °F 5.0 °F 79% 29.97 in 10.0 mi South 18.4 mph - N/A   Clear
4:35 AM 10.4 °F -8.6 °F 3.2 °F 73% 29.95 in 10.0 mi SSW 20.7 mph - N/A   Clear
4:55 AM 8.6 °F -10.0 °F 3.2 °F 79% 29.92 in 10.0 mi South 18.4 mph - N/A   Partly Cloudy
5:15 AM 8.6 °F -8.9 °F 3.2 °F 79% 29.92 in 10.0 mi SSW 16.1 mph - N/A   Clear
5:35 AM 8.6 °F -9.5 °F 3.2 °F 79% 29.92 in 10.0 mi SSW 17.3 mph - N/A   Clear
5:55 AM 8.6 °F -9.5 °F 3.2 °F 79% 29.89 in 10.0 mi SSW 17.3 mph - N/A   Clear
6:15 AM 10.4 °F -8.6 °F 5.0 °F 79% 29.89 in 10.0 mi SSW 20.7 mph - N/A   Clear
6:35 AM 10.4 °F -7.2 °F 3.2 °F 73% 29.89 in 10.0 mi SSW 17.3 mph - N/A   Clear
6:55 AM 10.4 °F -7.2 °F 3.2 °F 73% 29.86 in 10.0 mi SSW 17.3 mph 26.5 mph N/A   Clear
7:15 AM 8.6 °F -9.5 °F 3.2 °F 79% 29.85 in 10.0 mi SSW 17.3 mph 25.3 mph N/A   Clear
7:55 AM 10.4 °F -6.0 °F 5.0 °F 79% 29.84 in 10.0 mi SSW 15.0 mph - N/A   Clear
8:35 AM 10.4 °F -6.0 °F 5.0 °F 79% 29.85 in 10.0 mi SSW 15.0 mph - N/A   Clear
8:55 AM 10.4 °F -6.0 °F 6.8 °F 85% 29.84 in 10.0 mi SSW 15.0 mph - N/A   Clear
9:15 AM 12.2 °F -3.1 °F 6.8 °F 79% 29.84 in 10.0 mi SW 13.8 mph - N/A   Clear
9:35 AM 14.0 °F -0.8 °F 8.6 °F 79% 29.84 in 10.0 mi SW 13.8 mph - N/A   Partly Cloudy
9:55 AM 15.8 °F 4.2 °F 10.4 °F 79% 29.85 in 10.0 mi SW 9.2 mph - N/A   Scattered Clouds
10:15 AM 17.6 °F 5.7 °F 12.2 °F 79% 29.84 in 10.0 mi SW 10.4 mph - N/A   Mostly Cloudy
10:35 AM 19.4 °F 7.2 °F 12.2 °F 74% 29.83 in 10.0 mi WSW 11.5 mph - N/A   Scattered Clouds
10:55 AM 21.2 °F 8.3 °F 14.0 °F 74% 29.83 in 10.0 mi WSW 13.8 mph - N/A   Partly Cloudy
11:15 AM 23.0 °F 12.4 °F 14.0 °F 68% 29.83 in 10.0 mi WSW 10.4 mph - N/A   Scattered Clouds
11:35 AM 23.0 °F 12.4 °F 15.8 °F 74% 29.83 in 10.0 mi WSW 10.4 mph - N/A   Partly Cloudy
11:55 AM 26.6 °F 17.5 °F 15.8 °F 64% 29.82 in 10.0 mi WSW 9.2 mph - N/A   Clear
12:15 PM 26.6 °F 16.8 °F 14.0 °F 59% 29.80 in 10.0 mi West 10.4 mph - N/A   Clear
12:35 PM 26.6 °F 18.2 °F 14.0 °F 59% 29.78 in 10.0 mi West 8.1 mph - N/A   Clear
12:55 PM 26.6 °F 16.8 °F 14.0 °F 59% 29.78 in 10.0 mi West 10.4 mph - N/A   Clear
1:15 PM 28.4 °F 19.1 °F 15.8 °F 59% 29.77 in 10.0 mi West 10.4 mph - N/A   Clear
1:35 PM 28.4 °F 19.7 °F 15.8 °F 59% 29.78 in 10.0 mi West 9.2 mph - N/A   Scattered Clouds
1:55 PM 30.2 °F 22.6 °F 15.8 °F 55% 29.78 in 10.0 mi West 8.1 mph - N/A   Partly Cloudy
2:15 PM 30.2 °F 22.6 °F 15.8 °F 55% 29.79 in 10.0 mi WNW 8.1 mph - N/A   Clear
2:35 PM 28.4 °F 19.1 °F 17.6 °F 64% 29.78 in 10.0 mi West 10.4 mph - N/A   Clear
2:55 PM 28.4 °F 19.7 °F 19.4 °F 69% 29.77 in 10.0 mi West 9.2 mph - N/A   Clear
3:15 PM 28.4 °F 20.4 °F 19.4 °F 69% 29.77 in 10.0 mi West 8.1 mph - N/A   Mostly Cloudy
3:35 PM 30.2 °F 21.9 °F 19.4 °F 64% 29.78 in 10.0 mi West 9.2 mph - N/A   Overcast
3:55 PM 30.2 °F 23.4 °F 21.2 °F 69% 29.77 in 10.0 mi WSW 6.9 mph - N/A   Overcast
4:15 PM 30.2 °F 22.6 °F 21.2 °F 69% 29.76 in 10.0 mi WSW 8.1 mph - N/A   Overcast
4:35 PM 30.2 °F 24.3 °F 23.0 °F 75% 29.76 in 10.0 mi WSW 5.8 mph - N/A   Mostly Cloudy
4:55 PM 28.4 °F 19.1 °F 23.0 °F 80% 29.77 in 10.0 mi WSW 10.4 mph - N/A   Overcast
5:15 PM 28.4 °F 20.4 °F 23.0 °F 80% 29.76 in 10.0 mi SW 8.1 mph - N/A   Overcast
5:35 PM 28.4 °F 22.2 °F 23.0 °F 80% 29.76 in 10.0 mi SW 5.8 mph - N/A   Overcast
5:55 PM 28.4 °F 21.2 °F 23.0 °F 80% 29.76 in 10.0 mi West 6.9 mph - N/A   Overcast
6:15 PM 28.4 °F 21.2 °F 23.0 °F 80% 29.77 in 10.0 mi West 6.9 mph - N/A   Overcast
6:35 PM 28.4 °F 22.2 °F 23.0 °F 80% 29.77 in 10.0 mi West 5.8 mph - N/A   Overcast
6:55 PM 28.4 °F 21.2 °F 23.0 °F 80% 29.78 in 10.0 mi West 6.9 mph - N/A   Overcast
7:15 PM 28.4 °F 22.2 °F 24.8 °F 86% 29.78 in 10.0 mi West 5.8 mph - N/A   Overcast
7:35 PM 28.4 °F 23.3 °F 24.8 °F 86% 29.77 in 10.0 mi WNW 4.6 mph - N/A   Overcast
7:55 PM 26.6 °F 21.2 °F 24.8 °F 93% 29.78 in 10.0 mi WNW 4.6 mph - N/A   Overcast
8:15 PM 26.6 °F 21.2 °F 24.8 °F 93% 29.78 in 10.0 mi WNW 4.6 mph - N/A   Overcast
8:35 PM 28.4 °F 24.6 °F 24.8 °F 86% 29.78 in 10.0 mi WNW 3.5 mph - N/A   Overcast
8:55 PM 28.4 °F 22.2 °F 24.8 °F 86% 29.78 in 9.0 mi WNW 5.8 mph - N/A   Overcast
9:15 PM 28.4 °F 22.2 °F 24.8 °F 86% 29.78 in 10.0 mi WNW 5.8 mph - N/A Snow Light Snow
9:35 PM 28.4 °F 22.2 °F 24.8 °F 86% 29.78 in 10.0 mi WNW 5.8 mph - N/A   Overcast
9:55 PM 28.4 °F 21.2 °F 24.8 °F 86% 29.78 in 10.0 mi WNW 6.9 mph - N/A   Overcast
10:15 PM 28.4 °F 19.1 °F 26.6 °F 93% 29.78 in 5.0 mi NW 10.4 mph - N/A   Overcast
10:35 PM 28.4 °F 21.2 °F 26.6 °F 93% 29.79 in 10.0 mi WNW 6.9 mph - N/A   Overcast
10:55 PM 28.4 °F 22.2 °F 26.6 °F 93% 29.79 in 10.0 mi WNW 5.8 mph - N/A   Overcast
11:15 PM 28.4 °F 23.3 °F 26.6 °F 93% 29.79 in 10.0 mi West 4.6 mph - N/A   Overcast
11:35 PM 28.4 °F 23.3 °F 26.6 °F 93% 29.80 in 10.0 mi WNW 4.6 mph - N/A   Overcast
11:55 PM 28.4 °F 23.3 °F 26.6 °F 93% 29.80 in 10.0 mi NW 4.6 mph - N/A   Overcast